Flag for U.S.A. Weather past 2 weeks in Milwaukee, Wisconsin, U.S.A.

Now
81 °F

Scattered clouds.


Feels Like: 81 °F
Forecast: 62 / 81 °F
Wind: 6 mph from South

Location: Milwaukee / Timmerman

Current Time: Jul 5, 2015 at 1:33:02 PM

Latest Report: Jul 5, 2015 at 12:45 PM


Visibility: 10 mi

Pressure: 30.07 "Hg

Humidity: 42%

Dew point: 55 °F

Location of MilwaukeeLocation

Historic Weather in Milwaukee — Graph

°F

Milwaukee temperature yesterday

Maximum temperature yesterday: 81 °F (at 1:45 PM)
Minimum temperature yesterday: 55 °F (at 5:15 AM)
Average temperature yesterday: 68 °F

Past Weeks' High & Low Weather Summary

 TemperatureHumidityPressure
High84 °F (Jun 21, 2:45 PM)94% (Jun 24, 4:35 AM)30.17 "Hg (Jun 24, 4:35 AM)
Low50 °F (Jun 28, 3:55 AM)30% (Jun 21, 7:45 PM)29.64 "Hg (Jun 22, 2:45 PM)
Average64 °F68%29.96 "Hg
* Reported Jun 20 11:45 AM — Jul 5 11:45 AM, Milwaukee, Weather by CustomWeather, © 2015

Note: Actual official high and low records may vary slightly from our data, if they occured in-between our weather recording intervals... More about our weather records

Advertising

Milwaukee weather history for previous 24 hours

 ConditionsComfort  
Time TempWeatherWind HumidityBarometerVisibility
11:45 AM
Sun, Jul 5
79 °FSunny.7 mph45%30.07 "Hg10 mi
10:45 AM79 °FSunny.6 mph45%30.08 "Hg10 mi
9:45 AM75 °FSunny.8 mph54%30.08 "Hg10 mi
8:45 AM73 °FSunny.No wind61%30.09 "Hg10 mi
7:45 AM68 °FSunny.No wind73%30.08 "Hg7 mi
7:15 AM64 °FSunny.No wind83%30.09 "Hg5 mi
6:55 AM63 °FSunny.No wind83%30.09 "Hg5 mi
6:35 AM63 °FSunny.No wind77%30.08 "Hg5 mi
6:15 AM61 °FClear.No wind83%30.08 "Hg5 mi
5:55 AM61 °FClear.No wind83%30.07 "Hg5 mi
5:35 AM59 °FFog.No wind88%30.06 "Hg4 mi
5:15 AM59 °FClear.No wind82%30.06 "Hg4 mi
4:55 AM59 °FClear.No wind82%30.05 "Hg7 mi
4:35 AM61 °FClear.No wind83%30.05 "Hg7 mi
4:15 AM61 °FClear.No wind77%30.05 "Hg7 mi
3:55 AM63 °FClear.No wind77%30.05 "Hg7 mi
3:35 AM63 °FClear.No wind77%30.06 "Hg7 mi
3:15 AM61 °FClear.No wind77%30.06 "Hg7 mi
2:55 AM63 °FClear.No wind73%30.06 "Hg7 mi
2:35 AM63 °FClear.No wind73%30.06 "Hg7 mi
2:15 AM63 °FClear.No wind73%30.06 "Hg7 mi
1:55 AM63 °FClear.No wind73%30.05 "Hg7 mi
1:35 AM63 °FClear.No wind73%30.05 "Hg10 mi
1:15 AM64 °FClear.3 mph68%30.04 "Hg10 mi
12:55 AM66 °FClear.6 mph64%30.03 "Hg10 mi
12:15 AM68 °FClear.7 mph60%30.03 "Hg10 mi
11:55 PM
Sat, Jul 4
68 °FClear.7 mph60%30.03 "Hg10 mi
11:15 PM68 °FClear.7 mph64%30.03 "Hg10 mi
10:55 PM70 °FClear.6 mph60%30.02 "Hg10 mi
10:35 PM70 °FClear.6 mph64%30.02 "Hg10 mi
10:15 PM70 °FClear.3 mph64%30.02 "Hg10 mi
9:55 PM70 °FClear.5 mph64%30.01 "Hg10 mi
9:35 PM72 °FClear.No wind61%30.00 "Hg7 mi
9:15 PM73 °FSunny.No wind57%29.99 "Hg10 mi
8:45 PM75 °FSunny.No wind54%29.98 "Hg10 mi
7:45 PM77 °FSunny.No wind51%29.98 "Hg10 mi
5:45 PM81 °FScattered clouds.No wind45%29.98 "Hg10 mi
4:45 PM81 °FBroken clouds.5 mph42%29.99 "Hg10 mi
3:45 PM81 °FMostly cloudy.7 mph45%29.98 "Hg10 mi
2:45 PM81 °FOvercast.7 mph42%29.99 "Hg10 mi
1:45 PM81 °FWarm.N/A42%29.99 "HgN/A
Weather by CustomWeather, © 2015

See weather overviewHow to use our weather pages